Home   Weather   36°57'N, 86°25'W   Past weeks
Flag for USA

Past Weather in 36°57'N, 86°25'W, USA — Yesterday and Last 2 Weeks

Now
85 °F

Scattered clouds.


Feels Like: 91 °F
Forecast: 90 / 76 °F
Wind: 7 mph from Southwest

Location: Glasgow Municipal Airport

Current Time: Jul 18, 2019 at 1:16:58 pm

Latest Report: Jul 18, 2019 at 12:35 pm


Visibility: 10 mi

Pressure: 30.05 "Hg

Humidity: 65%

Dew Point: 72 °F

Location of 36°57'N, 86°25'WLocation

Past Weather in 36°57'N, 86°25'W — Graph

°F

36°57'N, 86°25'W Temperature Yesterday

Maximum temperature yesterday: 89 °F (at 4:35 pm)
Minimum temperature yesterday: 73 °F (at 3:35 am)
Average temperature yesterday: 79 °F

High & Low Weather Summary for the Past Weeks

 TemperatureHumidityPressure
High93 °F (Jul 10, 1:55 pm)97% (Jul 5, 1:55 am)30.22 "Hg (Jul 5, 1:55 am)
Low66 °F (Jul 5, 5:35 am)41% (Jul 9, 3:35 pm)29.85 "Hg (Jul 11, 5:35 pm)
Average78 °F79%30.02 "Hg
* Reported Jul 3 11:15 am — Jul 18 11:55 am, 36°57'N, 86°25'W. Weather by CustomWeather, © 2019

Note: Actual official high and low records may vary slightly from our data, if they occured in-between our weather recording intervals... More about our weather records

Advertising

36°57'N, 86°25'W Weather History for the Previous 24 Hours

Scroll right to see more
 ConditionsComfort  
Time TempWeatherWind HumidityBarometerVisibility
11:55 am
Thu, Jul 18
84 °FSunny.8 mph65%30.05 "Hg10 mi
11:35 am83 °FSunny.7 mph65%30.04 "Hg10 mi
11:15 am84 °FSunny.9 mph64%30.05 "Hg10 mi
10:55 am84 °FSunny.8 mph65%30.04 "Hg10 mi
10:35 am83 °FSunny.7 mph66%30.04 "Hg10 mi
10:15 am82 °FScattered clouds.13 mph67%30.04 "Hg10 mi
9:55 am82 °FScattered clouds.8 mph69%30.04 "Hg10 mi
9:35 am81 °FSunny.8 mph71%30.04 "Hg10 mi
9:15 am81 °FSunny.10 mph70%30.04 "Hg10 mi
8:55 am79 °FScattered clouds.9 mph75%30.04 "Hg10 mi
8:35 am79 °FScattered clouds.12 mph75%30.04 "Hg10 mi
8:15 am76 °FSunny.5 mph83%30.04 "Hg10 mi
7:55 am75 °FSunny.6 mph83%30.04 "Hg10 mi
7:35 am75 °FSunny.3 mph85%30.03 "Hg10 mi
6:55 am74 °FSunny.No wind89%30.02 "Hg10 mi
6:35 am74 °FScattered clouds.3 mph90%30.02 "Hg10 mi
6:15 am73 °FScattered clouds.6 mph91%30.01 "Hg10 mi
5:55 am73 °FScattered clouds.5 mph92%30.01 "Hg10 mi
5:35 am73 °FScattered clouds.6 mph91%30.00 "Hg10 mi
5:15 am74 °FSunny.3 mph91%29.99 "Hg10 mi
4:55 am74 °FScattered clouds.9 mph91%29.98 "Hg10 mi
4:35 am75 °FPassing clouds.5 mph91%29.98 "Hg10 mi
4:15 am75 °FPassing clouds.8 mph93%29.98 "Hg7 mi
3:55 am75 °FFog.5 mph94%29.98 "Hg5 mi
3:35 am76 °FPassing clouds.3 mph93%29.96 "Hg7 mi
3:15 am76 °FClear.3 mph93%29.96 "Hg7 mi
2:55 am76 °FClear.No wind92%29.96 "Hg7 mi
2:35 am76 °FClear.No wind92%29.96 "Hg7 mi
2:15 am76 °FClear.No wind90%29.97 "Hg10 mi
1:55 am77 °FPassing clouds.3 mph89%29.97 "Hg10 mi
1:35 am77 °FOvercast.3 mph88%29.98 "Hg10 mi
12:55 am77 °FPassing clouds.No wind89%29.99 "Hg10 mi
12:35 am77 °FClear.No wind90%29.99 "Hg10 mi
12:15 am76 °FPassing clouds.3 mph91%29.99 "Hg10 mi
11:55 pm
Wed, Jul 17
76 °FClear.No wind90%30.01 "Hg10 mi
11:35 pm77 °FClear.No wind88%30.01 "Hg10 mi
11:15 pm77 °FClear.No wind88%30.01 "Hg10 mi
10:55 pm77 °FClear.No wind88%30.01 "Hg10 mi
10:35 pm77 °FClear.No wind89%30.01 "Hg10 mi
10:15 pm78 °FClear.No wind87%30.00 "Hg10 mi
9:35 pm78 °FClear.No wind86%30.00 "Hg10 mi
9:15 pm79 °FPassing clouds.No wind84%30.01 "Hg10 mi
8:55 pm79 °FPassing clouds.3 mph84%30.00 "Hg10 mi
8:35 pm80 °FPassing clouds.No wind82%30.00 "Hg10 mi
8:15 pm81 °FMostly cloudy.No wind80%29.99 "Hg10 mi
7:55 pm82 °FPassing clouds.No wind78%29.99 "Hg10 mi
7:15 pm85 °FPassing clouds.5 mph69%29.98 "Hg10 mi
6:55 pm85 °FSunny.3 mph69%29.96 "Hg10 mi
6:35 pm85 °FScattered clouds.8 mph67%29.97 "Hg10 mi
6:15 pm86 °FScattered clouds.9 mph65%29.98 "Hg10 mi
5:55 pm87 °FScattered clouds.9 mph63%29.98 "Hg10 mi
5:35 pm88 °FScattered clouds.10 mph61%29.98 "Hg10 mi
5:15 pm88 °FScattered clouds.10 mph59%29.98 "Hg10 mi
4:55 pm87 °FBroken clouds.14 mph63%29.98 "Hg10 mi
4:35 pm89 °FScattered clouds.9 mph61%29.98 "Hg10 mi
4:15 pm88 °FScattered clouds.12 mph62%29.98 "Hg10 mi
3:55 pm88 °FBroken clouds.13 mph63%29.98 "Hg10 mi
3:35 pm87 °FScattered clouds.10 mph65%29.99 "Hg10 mi
3:15 pm88 °FBroken clouds.12 mph63%30.00 "Hg10 mi
2:55 pm87 °FScattered clouds.9 mph64%30.00 "Hg10 mi
2:35 pm87 °FScattered clouds.10 mph66%30.00 "Hg10 mi
2:15 pm87 °FBroken clouds.10 mph66%30.00 "Hg10 mi
1:55 pm87 °FScattered clouds.6 mph65%30.01 "Hg10 mi
1:35 pm87 °FPartly sunny.6 mph66%30.02 "Hg10 mi
1:15 pm86 °FBroken clouds.8 mph67%30.03 "Hg10 mi
Weather by CustomWeather, © 2019

See weather overview